Tracking 25378 objects as of 22-Jan-2022
HD Live streaming from Space Station
objects crossing your sky now

METEOR 2-12 DEB

Track METEOR 2-12 DEB now!
10-day predictions


NORAD ID: 45518
Int'l Code: 1985-013D
Perigee: 908.9 km
Apogee: 930.2 km
Inclination: 82.5 °
Period: 103.3 minutes
Semi major axis: 7290 km
RCS: Unknown
Launch date: February 6, 1985
Source: Commonwealth of Independent States (former USSR) (CIS)
Launch site: PLESETSK MISSILE AND SPACE COMPLEX (PKMTR)

Note: This is SATELLITE DEBRIS
aabbcc
Your satellite tracking list
Your tracking list is empty




NASA's NSSDC Master Catalog

Two Line Element Set (TLE):
1 45518U 85013D   22020.08471830  .00001956  00000-0  14509-2 0  9999
2 45518  82.5287 143.4978 0014628  32.1081 328.0973 13.94636817354887
Source of the keplerian elements: AFSPC